Weather History for KBMG - February, 2014

Change the Weather History Date:

Sunday, February 9, 2014

  Actual Average Record
Temperature  
Mean Temperature 22 °F 32 °F  
Max Temperature 28 °F 41 °F - ()
Min Temperature 15 °F 22 °F - ()
Degree Days  
Heating Degree Days 43 33  
Month to date heating degree days 385 307  
Since 1 July heating degree days 3827 3482  
Cooling Degree Days 0 0  
Month to date cooling degree days 0 0  
Year to date cooling degree days 0 0  
Moisture  
Dew Point 17 °F    
Average Humidity 69    
Maximum Humidity 88    
Minimum Humidity 50    
Precipitation  
Precipitation T in 0.11 in - ()
Month to date precipitation 0.77 0.95  
Year to date precipitation 3.09 4.26  
Sea Level Pressure  
Sea Level Pressure 30.15 in    
Wind  
Wind Speed 7 mph (WNW)    
Max Wind Speed 15 mph    
Max Gust Speed 20 mph    
Visibility 6 miles    
Events Snow    
T = Trace of Precipitation, MM = Missing Value Source: NWS Daily Summary

Daily Weather History Graph

Daily Weather History Graph

Search for Another Location

Airport or City:

Trip Planner

Search our weather history database for the weather conditions in past years. The results will help you decide how hot, cold, wet, or windy it might be!

Date:

Astronomy

Feb. 09, 2014 Rise Set
Actual Time 7:45 AM EST 6:16 PM EST
Civil Twilight 7:17 AM EST 6:44 PM EST
Nautical Twilight 6:45 AM EST 7:16 PM EST
Astronomical Twilight 6:14 AM EST 7:47 PM EST
Moon 1:57 PM EST (2/9) 3:49 AM EST (2/9)
Length of Visible Light 11h 27m
Length of Day
10h 31m
Waxing Gibbous, 77% of the Moon is Illuminated
Feb 9
Waxing Gibbous
Feb 14
Full
Feb 22
Last Quarter
Mar 1
New
Mar 8
First Quarter

Hourly Weather History & Observations

Time (EST) Temp. Windchill Dew Point Humidity Pressure Visibility Wind Dir Wind Speed Gust Speed Precip Events Conditions
12:35 AM 26.1 °F - 21.9 °F 84% 30.12 in 6.0 mi Calm Calm - N/A   Overcast
12:53 AM 26.1 °F 20.5 °F 21.9 °F 84% 30.14 in 6.0 mi SW 4.6 mph - N/A   Overcast
1:53 AM 26.1 °F 21.9 °F 23.0 °F 88% 30.14 in 4.0 mi West 3.5 mph - N/A   Overcast
2:53 AM 26.1 °F 19.4 °F 23.0 °F 88% 30.14 in 3.0 mi West 5.8 mph - N/A   Overcast
3:32 AM 26.1 °F 17.6 °F 23.0 °F 88% 30.11 in 2.5 mi WNW 8.1 mph - N/A   Overcast
3:41 AM 26.1 °F 16.8 °F 23.0 °F 88% 30.11 in 3.0 mi WNW 9.2 mph - N/A   Overcast
3:53 AM 26.1 °F 16.2 °F 21.9 °F 84% 30.14 in 3.0 mi WNW 10.4 mph - N/A   Overcast
4:53 AM 25.0 °F 16.3 °F 21.0 °F 85% 30.13 in 4.0 mi WNW 8.1 mph - N/A   Overcast
5:44 AM 24.1 °F - 21.0 °F 88% 30.09 in 6.0 mi Calm Calm - N/A   Overcast
5:53 AM 24.1 °F 19.7 °F 21.0 °F 88% 30.12 in 6.0 mi WNW 3.5 mph - N/A   Overcast
6:12 AM 24.1 °F 17.0 °F 19.9 °F 84% 30.10 in 7.0 mi West 5.8 mph - N/A   Overcast
6:26 AM 24.1 °F - 19.9 °F 84% 30.09 in 6.0 mi Calm Calm - N/A   Overcast
6:53 AM 24.1 °F - 19.9 °F 84% 30.12 in 6.0 mi Calm Calm - N/A   Overcast
7:51 AM 23.0 °F 15.8 °F 19.4 °F 86% 30.10 in 2.0 mi Variable 5.8 mph - 0.00 in Snow Light Snow
7:52 AM 23.0 °F 15.8 °F 19.0 °F 85% 30.14 in 1.8 mi NW 5.8 mph - 0.00 in Snow Light Snow
8:05 AM 23.0 °F 17.0 °F 19.0 °F 85% 30.11 in 0.8 mi Variable 4.6 mph - 0.00 in Snow Light Snow
8:15 AM 23.0 °F 17.0 °F 19.0 °F 85% 30.11 in 1.0 mi NW 4.6 mph - 0.00 in Snow Light Snow
8:36 AM 23.0 °F - 18.0 °F 81% 30.11 in 3.0 mi Calm Calm - 0.00 in Snow Light Snow
8:42 AM 23.0 °F - 18.0 °F 81% 30.10 in 4.0 mi Calm Calm - 0.00 in   Haze
8:53 AM 23.0 °F - 19.0 °F 85% 30.14 in 5.0 mi Calm Calm - 0.00 in   Overcast
9:02 AM 23.0 °F - 19.0 °F 85% 30.11 in 1.8 mi Calm Calm - 0.00 in Snow Light Snow
9:16 AM 23.0 °F 17.0 °F 19.0 °F 85% 30.13 in 1.8 mi WNW 4.6 mph - 0.00 in Snow Light Snow
9:23 AM 23.0 °F 15.8 °F 19.0 °F 85% 30.13 in 2.5 mi WNW 5.8 mph - 0.00 in Snow Light Snow
9:35 AM 23.0 °F 15.8 °F 18.0 °F 81% 30.14 in 1.5 mi WNW 5.8 mph - 0.00 in Snow Light Snow
9:44 AM 23.0 °F 13.9 °F 18.0 °F 81% 30.14 in 2.0 mi WNW 8.1 mph - 0.00 in Snow Light Snow
9:53 AM 23.0 °F 17.0 °F 18.0 °F 81% 30.16 in 3.0 mi NW 4.6 mph - 0.00 in Snow Light Snow
10:11 AM 23.0 °F - 18.0 °F 81% 30.11 in 8.0 mi Calm Calm - 0.00 in   Overcast
10:53 AM 25.0 °F 17.1 °F 18.0 °F 75% 30.17 in 9.0 mi West 6.9 mph - 0.00 in   Overcast
11:21 AM 26.1 °F 19.4 °F 18.0 °F 71% 30.14 in 10.0 mi Variable 5.8 mph - N/A   Overcast
11:53 AM 26.1 °F 16.2 °F 17.1 °F 69% 30.17 in 10.0 mi West 10.4 mph - N/A   Overcast
12:53 PM 26.1 °F 16.8 °F 16.0 °F 66% 30.16 in 9.0 mi NNW 9.2 mph 17.3 mph N/A   Overcast
1:53 PM 27.0 °F 15.6 °F 16.0 °F 63% 30.14 in 10.0 mi West 13.8 mph - N/A   Overcast
2:50 PM 26.6 °F 16.8 °F 14.0 °F 59% 30.12 in 10.0 mi WNW 10.4 mph - N/A   Scattered Clouds
2:53 PM 27.0 °F 17.3 °F 14.0 °F 58% 30.14 in 10.0 mi WNW 10.4 mph - N/A   Mostly Cloudy
3:53 PM 26.1 °F 17.6 °F 10.0 °F 51% 30.17 in 10.0 mi NW 8.1 mph - N/A   Mostly Cloudy
4:00 PM 26.1 °F 18.4 °F 10.0 °F 51% 30.14 in 10.0 mi Variable 6.9 mph - N/A   Partly Cloudy
4:53 PM 24.1 °F 13.7 °F 9.0 °F 53% 30.21 in 10.0 mi West 10.4 mph - N/A   Overcast
5:53 PM 23.0 °F 15.8 °F 9.0 °F 55% 30.23 in 10.0 mi WNW 5.8 mph - N/A   Overcast
6:53 PM 21.0 °F 12.4 °F 6.1 °F 53% 30.25 in 10.0 mi NW 6.9 mph - N/A   Overcast
7:53 PM 19.0 °F 9.0 °F 6.1 °F 57% 30.27 in 10.0 mi NW 8.1 mph - N/A   Overcast
8:53 PM 18.0 °F 8.7 °F 7.0 °F 62% 30.28 in 10.0 mi NW 6.9 mph - N/A   Overcast
9:53 PM 17.1 °F 10.0 °F 6.1 °F 62% 30.29 in 10.0 mi Variable 4.6 mph - N/A   Overcast
10:53 PM 16.0 °F 10.4 °F 6.1 °F 65% 30.30 in 10.0 mi Variable 3.5 mph - N/A   Overcast
11:53 PM 15.1 °F 7.7 °F 6.1 °F 68% 30.30 in 10.0 mi NNW 4.6 mph - N/A   Overcast